Estación de Río Negro
Ultimos registro cada 15 minutos 47
| N° | Estación | Fecha / Hora | Temperatura | Humedad | Lluvia | Velocidad | Dirección | Radiación | Presion |
| 47 | Río Negro | 02-05-2026 11:30 | 9 | 91 | 0 | 0 | 229 | 464,4 | 1013,6 |
| 46 | Río Negro | 02-05-2026 11:15 | 8 | 91,9 | 0 | 0,5 | 271 | 458,1 | 1014 |
| 45 | Río Negro | 02-05-2026 11:00 | 6,8 | 97,3 | 0 | 1 | 271 | 484,4 | 1014,3 |
| 44 | Río Negro | 02-05-2026 10:45 | 6,3 | 99 | 0 | 0 | 256 | 264,4 | 1014,4 |
| 43 | Río Negro | 02-05-2026 10:30 | 5 | 100 | 0 | 0 | 251 | 486,9 | 1014,3 |
| 42 | Río Negro | 02-05-2026 10:15 | 3,8 | 100 | 0 | 0 | 274 | 235,6 | 1014,9 |
| 41 | Río Negro | 02-05-2026 10:00 | 2,8 | 100 | 0 | 0 | 282 | 190,6 | 1015 |
| 40 | Río Negro | 02-05-2026 09:45 | 2,2 | 100 | 0 | 0 | 284 | 150,6 | 1015,3 |
| 39 | Río Negro | 02-05-2026 09:30 | 2,1 | 100 | 0 | 0 | 327 | 405,6 | 1015,1 |
| 38 | Río Negro | 02-05-2026 09:15 | 1 | 100 | 0 | 0 | 0 | 233,1 | 1015,5 |
| 37 | Río Negro | 02-05-2026 09:00 | -0,4 | 100 | 0 | 0 | 0 | 180,6 | 1015,7 |
| 36 | Río Negro | 02-05-2026 08:45 | -0,8 | 100 | 0 | 0 | 0 | 140,6 | 1016,1 |
| 35 | Río Negro | 02-05-2026 08:30 | -1,5 | 100 | 0 | 0 | 65 | 80,6 | 1016,2 |
| 34 | Río Negro | 02-05-2026 08:15 | -1,8 | 100 | 0 | 0 | 121 | 49,4 | 1016,2 |
| 33 | Río Negro | 02-05-2026 08:00 | -2,5 | 100 | 0 | 0 | 142 | 20,6 | 1016,1 |
| 32 | Río Negro | 02-05-2026 07:45 | -2,2 | 100 | 0 | 0 | 159 | 5,6 | 1016,5 |
| 31 | Río Negro | 02-05-2026 07:30 | -2,1 | 100 | 0 | 0 | 159 | 0,6 | 1016,4 |
| 30 | Río Negro | 02-05-2026 07:15 | -2,4 | 100 | 0 | 0 | 187 | 0,6 | 1016,6 |
| 29 | Río Negro | 02-05-2026 07:00 | -1,8 | 100 | 0 | 0 | 345 | 0,6 | 1016,8 |
| 28 | Río Negro | 02-05-2026 06:45 | -1,7 | 100 | 0 | 0 | 345 | 0,6 | 1017 |
| 27 | Río Negro | 02-05-2026 06:30 | -1,6 | 100 | 0 | 0 | 183 | 0,6 | 1016,9 |
| 26 | Río Negro | 02-05-2026 06:15 | -1,6 | 100 | 0 | 0 | 271 | 0,6 | 1017,2 |
| 25 | Río Negro | 02-05-2026 06:00 | -1,3 | 100 | 0 | 0 | 271 | 0,6 | 1017,4 |
| 24 | Río Negro | 02-05-2026 05:45 | -1,4 | 100 | 0 | 0 | 107 | 0,6 | 1017,6 |
| 23 | Río Negro | 02-05-2026 05:30 | -1,3 | 100 | 0 | 0 | 208 | 0,6 | 1017,9 |
| 22 | Río Negro | 02-05-2026 05:15 | -1 | 100 | 0 | 0 | 247 | 0,6 | 1018,1 |
| 21 | Río Negro | 02-05-2026 05:00 | -0,7 | 100 | 0 | 0 | 247 | 0,6 | 1018,1 |
| 20 | Río Negro | 02-05-2026 04:45 | -0,5 | 100 | 0 | 0 | 237 | 0,6 | 1018,1 |
| 19 | Río Negro | 02-05-2026 04:30 | -1,2 | 100 | 0 | 0 | 340 | 0,6 | 1018,2 |
| 18 | Río Negro | 02-05-2026 04:15 | -0,6 | 100 | 0 | 0 | 343 | 0,6 | 1018,7 |
| 17 | Río Negro | 02-05-2026 04:00 | -1 | 100 | 0 | 0 | 140 | 0,6 | 1018,9 |
| 16 | Río Negro | 02-05-2026 03:45 | -0,9 | 100 | 0 | 0 | 136 | 0,6 | 1019 |
| 15 | Río Negro | 02-05-2026 03:30 | -1 | 100 | 0 | 0 | 187 | 0,6 | 1019,2 |
| 14 | Río Negro | 02-05-2026 03:15 | -0,7 | 100 | 0 | 0 | 275 | 0,6 | 1019,5 |
| 13 | Río Negro | 02-05-2026 03:00 | -0,8 | 100 | 0 | 0 | 154 | 0,6 | 1019,6 |
| 12 | Río Negro | 02-05-2026 02:45 | -0,4 | 100 | 0 | 0 | 168 | 0,6 | 1019,8 |
| 11 | Río Negro | 02-05-2026 02:30 | 0 | 100 | 0 | 0 | 150 | 0,6 | 1019,6 |
| 10 | Río Negro | 02-05-2026 02:15 | -0,2 | 100 | 0 | 0 | 131 | 0,6 | 1019,4 |
| 9 | Río Negro | 02-05-2026 02:00 | -0,5 | 100 | 0 | 0 | 131 | 0,6 | 1019,4 |
| 8 | Río Negro | 02-05-2026 01:45 | 0 | 100 | 0 | 0 | 131 | 0,6 | 1019,5 |
| 7 | Río Negro | 02-05-2026 01:30 | 0,2 | 100 | 0 | 0 | 133 | 0,6 | 1019,8 |
| 6 | Río Negro | 02-05-2026 01:15 | 0,3 | 100 | 0 | 0 | 168 | 0,6 | 1019,7 |
| 5 | Río Negro | 02-05-2026 01:00 | 0,2 | 99,7 | 0 | 0 | 243 | 0,6 | 1019,8 |
| 4 | Río Negro | 02-05-2026 00:45 | 0,9 | 99,8 | 0 | 0 | 278 | 0,6 | 1019,9 |
| 3 | Río Negro | 02-05-2026 00:30 | 1 | 99,8 | 0 | 0 | 271 | 0,6 | 1020 |
| 2 | Río Negro | 02-05-2026 00:15 | 1 | 99,6 | 0 | 0 | 254 | 0,6 | 1020,4 |
| 1 | Río Negro | 02-05-2026 00:00 | 1,7 | 99,6 | 0 | 0 | 239 | 0,6 | 1020,3 |